| time (UTC) | temp C | wind direction | speed KPH | gust KPH | rain 1hr cm | rain 24hr cm | rain mn cm | humidity % | barometer mb |
| 20260506033027 | 11 | 301 | 6.4 | 12.9 | 0.00 | 0.00 | 0.00 | 87 | 1014.7 |
| 20260506031514 | 11 | 288 | 4.8 | 12.9 | 0.00 | 0.00 | 0.00 | 87 | 1014.8 |
| 20260506030022 | 11 | 306 | 6.4 | 11.3 | 0.00 | 0.00 | 0.00 | 87 | 1014.8 |
| 20260506024538 | 11 | 297 | 6.4 | 11.3 | 0.00 | 0.00 | 0.00 | 86 | 1014.9 |
| 20260506023009 | 11 | 292 | 6.4 | 12.9 | 0.00 | 0.00 | 0.00 | 86 | 1014.9 |
| 20260506021512 | 12 | 291 | 8.0 | 12.9 | 0.00 | 0.00 | 0.00 | 85 | 1015.1 |
| 20260506020020 | 12 | 275 | 8.0 | 17.7 | 0.00 | 0.00 | 0.00 | 84 | 1015.2 |
| 20260506014525 | 12 | 288 | 11.3 | 17.7 | 0.00 | 0.00 | 0.00 | 84 | 1015.2 |
| 20260506013005 | 12 | 292 | 9.7 | 16.1 | 0.00 | 0.00 | 0.00 | 83 | 1015.3 |
| 20260506011510 | 13 | 288 | 8.0 | 19.3 | 0.00 | 0.00 | 0.00 | 82 | 1015.4 |
| 20260506010014 | 13 | 271 | 9.7 | 20.9 | 0.00 | 0.00 | 0.00 | 82 | 1015.5 |
| 20260506004521 | 13 | 284 | 12.9 | 24.1 | 0.00 | 0.00 | 0.00 | 81 | 1015.6 |
| 20260506003026 | 13 | 288 | 16.1 | 27.4 | 0.00 | 0.00 | 0.00 | 81 | 1015.7 |
| 20260506001506 | 13 | 304 | 14.5 | 20.9 | 0.00 | 0.00 | 0.00 | 81 | 1015.8 |
| 20260506000012 | 13 | 274 | 14.5 | 22.5 | 0.00 | 0.00 | 0.00 | 81 | 1015.9 |
| 20260505234521 | 13 | 254 | 14.5 | 27.4 | 0.00 | 0.00 | 0.00 | 80 | 1015.9 |
| 20260505233021 | 13 | 290 | 12.9 | 25.7 | 0.00 | 0.00 | 0.00 | 79 | 1016.0 |
| 20260505231530 | 13 | 252 | 20.9 | 30.6 | 0.00 | 0.00 | 0.00 | 78 | 1016.0 |
| 20260505230011 | 14 | 275 | 20.9 | 37.0 | 0.00 | 0.00 | 0.00 | 77 | 1016.1 |
| 20260505224514 | 13 | 265 | 20.9 | 30.6 | 0.00 | 0.00 | 0.00 | 77 | 1016.2 |
| 20260505223027 | 13 | 274 | 11.3 | 19.3 | 0.00 | 0.00 | 0.00 | 76 | 1016.2 |
| 20260505221526 | 14 | 292 | 8.0 | 25.7 | 0.00 | 0.00 | 0.00 | 74 | 1016.3 |
| 20260505220025 | 15 | 261 | 17.7 | 29.0 | 0.00 | 0.00 | 0.00 | 73 | 1016.2 |
| 20260505214523 | 15 | 256 | 14.5 | 25.7 | 0.00 | 0.00 | 0.00 | 74 | 1016.3 |
| 20260505213019 | 15 | 280 | 14.5 | 22.5 | 0.00 | 0.00 | 0.00 | 74 | 1016.3 |
| 20260505211525 | 15 | 260 | 19.3 | 27.4 | 0.00 | 0.00 | 0.00 | 73 | 1016.4 |
| 20260505210026 | 15 | 249 | 17.7 | 25.7 | 0.00 | 0.00 | 0.00 | 75 | 1016.3 |
| 20260505204510 | 15 | 233 | 16.1 | 24.1 | 0.00 | 0.00 | 0.00 | 80 | 1016.2 |
| 20260505203018 | 15 | 224 | 14.5 | 27.4 | 0.00 | 0.00 | 0.00 | 79 | 1016.1 |
| 20260505201520 | 15 | 253 | 16.1 | 25.7 | 0.00 | 0.00 | 0.00 | 79 | 1016.0 |
| 20260505200030 | 15 | 234 | 16.1 | 25.7 | 0.00 | 0.00 | 0.00 | 79 | 1016.0 |
| 20260505194526 | 15 | 225 | 16.1 | 27.4 | 0.00 | 0.00 | 0.00 | 80 | 1015.8 |
| 20260505193013 | 15 | 244 | 12.9 | 29.0 | 0.00 | 0.00 | 0.00 | 79 | 1015.7 |
| 20260505191519 | 15 | 194 | 12.9 | 29.0 | 0.00 | 0.00 | 0.00 | 78 | 1015.7 |
| 20260505190028 | 15 | 188 | 19.3 | 33.8 | 0.00 | 0.00 | 0.00 | 78 | 1015.7 |
| 20260505184524 | 15 | 209 | 19.3 | 33.8 | 0.00 | 0.00 | 0.00 | 77 | 1015.7 |
| 20260505183033 | 15 | 213 | 17.7 | 30.6 | 0.00 | 0.00 | 0.00 | 77 | 1015.5 |
| 20260505181519 | 16 | 223 | 19.3 | 37.0 | 0.00 | 0.00 | 0.00 | 75 | 1015.7 |
| 20260505180023 | 16 | 205 | 20.9 | 35.4 | 0.00 | 0.00 | 0.00 | 74 | 1015.8 |
| 20260505174526 | 16 | 208 | 17.7 | 38.6 | 0.00 | 0.00 | 0.00 | 74 | 1015.9 |
| 20260505173028 | 16 | 224 | 20.9 | 37.0 | 0.00 | 0.00 | 0.00 | 71 | 1016.0 |
| 20260505171529 | 16 | 227 | 17.7 | 35.4 | 0.00 | 0.00 | 0.00 | 73 | 1016.2 |
| 20260505170017 | 16 | 217 | 17.7 | 32.2 | 0.00 | 0.00 | 0.00 | 73 | 1016.2 |
| 20260505164504 | 16 | 200 | 20.9 | 35.4 | 0.00 | 0.00 | 0.00 | 72 | 1016.2 |
| 20260505163015 | 16 | 223 | 19.3 | 37.0 | 0.00 | 0.00 | 0.00 | 71 | 1016.3 |
| 20260505161516 | 16 | 227 | 24.1 | 38.6 | 0.00 | 0.00 | 0.00 | 71 | 1016.3 |
| 20260505153008 | 17 | 200 | 17.7 | 35.4 | 0.00 | 0.00 | 0.00 | 67 | 1016.4 |
| 20260505151508 | 17 | 231 | 17.7 | 33.8 | 0.00 | 0.00 | 0.00 | 63 | 1016.5 |
| 20260505124523 | 17 | 246 | 12.9 | 24.1 | 0.00 | 0.00 | 0.00 | 63 | 1017.3 |
| 20260505123028 | 17 | 175 | 16.1 | 27.4 | 0.00 | 0.00 | 0.00 | 65 | 1017.3 |
| 20260505121533 | 17 | 229 | 12.9 | 24.1 | 0.00 | 0.00 | 0.00 | 66 | 1017.6 |
| 20260505120024 | 17 | 227 | 14.5 | 25.7 | 0.00 | 0.00 | 0.00 | 65 | 1017.6 |
| 20260505114519 | 17 | 184 | 11.3 | 22.5 | 0.00 | 0.00 | 0.00 | 66 | 1017.7 |
| 20260505113018 | 17 | 186 | 12.9 | 20.9 | 0.00 | 0.00 | 0.00 | 67 | 1017.7 |
| 20260505111523 | 17 | 187 | 9.7 | 20.9 | 0.00 | 0.00 | 0.00 | 67 | 1017.9 |
| 20260505101539 | 16 | 240 | 12.9 | 22.5 | 0.00 | 0.00 | 0.00 | 67 | 1017.8 |
| 20260505100026 | 16 | 260 | 12.9 | 29.0 | 0.00 | 0.00 | 0.00 | 67 | 1017.9 |
| 20260505094512 | 16 | 244 | 12.9 | 27.4 | 0.00 | 0.00 | 0.00 | 67 | 1017.7 |
| 20260505093018 | 16 | 235 | 16.1 | 22.5 | 0.00 | 0.00 | 0.00 | 68 | 1017.7 |
| 20260505091519 | 16 | 259 | 14.5 | 20.9 | 0.00 | 0.00 | 0.00 | 68 | 1017.8 |
| 20260505090025 | 16 | 205 | 9.7 | 20.9 | 0.00 | 0.00 | 0.00 | 70 | 1017.7 |
| 20260505084526 | 15 | 238 | 12.9 | 20.9 | 0.00 | 0.00 | 0.00 | 70 | 1017.7 |
| 20260505083018 | 15 | 244 | 12.9 | 20.9 | 0.00 | 0.00 | 0.00 | 70 | 1017.8 |
| 20260505081518 | 15 | 275 | 14.5 | 24.1 | 0.00 | 0.00 | 0.00 | 71 | 1017.8 |
| 20260505080024 | 15 | 229 | 14.5 | 20.9 | 0.00 | 0.00 | 0.00 | 73 | 1017.8 |
| 20260505074528 | 14 | 265 | 8.0 | 12.9 | 0.00 | 0.00 | 0.00 | 75 | 1017.6 |
| 20260505073009 | 13 | 257 | 9.7 | 14.5 | 0.00 | 0.00 | 0.00 | 76 | 1017.6 |
| 20260505071528 | 13 | 320 | 6.4 | 8.0 | 0.00 | 0.00 | 0.00 | 78 | 1017.6 |
| 20260505070026 | 13 | 333 | 3.2 | 12.9 | 0.00 | 0.00 | 0.00 | 79 | 1017.5 |
| 20260505064525 | 12 | 330 | 6.4 | 9.7 | 0.00 | 0.00 | 0.00 | 80 | 1017.3 |
| 20260505063027 | 12 | 325 | 4.8 | 8.0 | 0.00 | 0.00 | 0.00 | 82 | 1017.1 |
| 20260505061518 | 11 | 349 | 6.4 | 9.7 | 0.00 | 0.00 | 0.00 | 83 | 1017.0 |
| 20260505060035 | 11 | 333 | 6.4 | 9.7 | 0.00 | 0.00 | 0.00 | 83 | 1016.8 |
| 20260505054524 | 11 | 329 | 3.2 | 8.0 | 0.00 | 0.00 | 0.00 | 82 | 1016.9 |
| 20260505053027 | 11 | 325 | 6.4 | 8.0 | 0.00 | 0.00 | 0.00 | 82 | 1016.8 |
| 20260505051529 | 11 | 319 | 6.4 | 9.7 | 0.00 | 0.00 | 0.00 | 82 | 1016.8 |
| 20260505041510 | 11 | 333 | 4.8 | 8.0 | 0.00 | 0.00 | 0.00 | 82 | 1016.8 |
| 20260505040016 | 11 | 318 | 4.8 | 8.0 | 0.00 | 0.00 | 0.00 | 82 | 1017.0 |
| 20260505034519 | 11 | 333 | 6.4 | 8.0 | 0.00 | 0.00 | 0.00 | 81 | 1017.1 |